| time (UTC) | temp C | wind direction | speed KPH | gust KPH | rain 1hr cm | rain 24hr cm | rain mn cm | humidity % | barometer mb |
| 20260510062528 | 12 | 321 | 1.6 | 8.0 | 0.00 | 0.00 | 0.00 | 84 | 1013.8 |
| 20260510062028 | 12 | 321 | 3.2 | 8.0 | 0.00 | 0.00 | 0.00 | 84 | 1013.7 |
| 20260510061528 | 11 | 321 | 3.2 | 8.0 | 0.00 | 0.00 | 0.00 | 85 | 1013.7 |
| 20260510061028 | 11 | 331 | 4.8 | 8.0 | 0.00 | 0.00 | 0.00 | 85 | 1013.7 |
| 20260510060531 | 11 | 341 | 3.2 | 8.0 | 0.00 | 0.00 | 0.00 | 86 | 1013.8 |
| 20260510060032 | 11 | 340 | 3.2 | 9.7 | 0.00 | 0.00 | 0.00 | 86 | 1013.8 |
| 20260510055532 | 11 | 347 | 3.2 | 6.4 | 0.00 | 0.00 | 0.00 | 87 | 1013.9 |
| 20260510055027 | 11 | 347 | 3.2 | 6.4 | 0.00 | 0.00 | 0.00 | 87 | 1013.8 |
| 20260510054531 | 11 | 347 | 1.6 | 6.4 | 0.00 | 0.00 | 0.00 | 87 | 1013.9 |
| 20260510054029 | 10 | 347 | 1.6 | 6.4 | 0.00 | 0.00 | 0.00 | 88 | 1013.8 |
| 20260510053526 | 10 | 347 | 1.6 | 6.4 | 0.00 | 0.00 | 0.00 | 88 | 1013.8 |
| 20260510053029 | 10 | 347 | 3.2 | 6.4 | 0.00 | 0.00 | 0.00 | 88 | 1013.9 |
| 20260510052527 | 10 | 348 | 3.2 | 8.0 | 0.00 | 0.00 | 0.00 | 88 | 1013.9 |
| 20260510052027 | 10 | 347 | 3.2 | 8.0 | 0.00 | 0.00 | 0.00 | 88 | 1013.9 |
| 20260510051527 | 10 | 341 | 1.6 | 6.4 | 0.00 | 0.00 | 0.00 | 89 | 1013.9 |
| 20260510051026 | 10 | 341 | 3.2 | 6.4 | 0.00 | 0.00 | 0.00 | 89 | 1013.7 |
| 20260510050526 | 10 | 341 | 1.6 | 6.4 | 0.00 | 0.00 | 0.00 | 90 | 1013.7 |
| 20260510050031 | 10 | 341 | 1.6 | 6.4 | 0.00 | 0.00 | 0.00 | 90 | 1013.7 |
| 20260510045527 | 10 | 341 | 3.2 | 6.4 | 0.00 | 0.00 | 0.00 | 90 | 1013.7 |
| 20260510045025 | 9 | 345 | 3.2 | 6.4 | 0.00 | 0.00 | 0.00 | 90 | 1013.7 |
| 20260510044525 | 9 | 345 | 1.6 | 6.4 | 0.00 | 0.00 | 0.00 | 91 | 1013.7 |
| 20260510044024 | 9 | 345 | 1.6 | 6.4 | 0.00 | 0.00 | 0.00 | 91 | 1013.8 |
| 20260510043525 | 9 | 345 | 0.0 | 3.2 | 0.00 | 0.00 | 0.00 | 91 | 1013.9 |
| 20260510043024 | 8 | 345 | 0.0 | 3.2 | 0.00 | 0.00 | 0.00 | 91 | 1013.9 |
| 20260510042523 | 8 | 345 | 0.0 | 3.2 | 0.00 | 0.00 | 0.00 | 91 | 1014.0 |
| 20260510042026 | 8 | 345 | 0.0 | 3.2 | 0.00 | 0.00 | 0.00 | 91 | 1014.0 |
| 20260510041523 | 8 | 345 | 1.6 | 3.2 | 0.00 | 0.00 | 0.00 | 91 | 1013.9 |
| 20260510041024 | 8 | 345 | 0.0 | 4.8 | 0.00 | 0.00 | 0.00 | 91 | 1013.9 |
| 20260510040523 | 8 | 345 | 1.6 | 4.8 | 0.00 | 0.00 | 0.00 | 91 | 1013.9 |
| 20260510040022 | 8 | 345 | 1.6 | 4.8 | 0.00 | 0.00 | 0.00 | 91 | 1013.9 |
| 20260510035521 | 8 | 345 | 0.0 | 0.0 | 0.00 | 0.00 | 0.00 | 91 | 1014.0 |
| 20260510035021 | 8 | 345 | 0.0 | 1.6 | 0.00 | 0.00 | 0.00 | 90 | 1014.0 |
| 20260510034526 | 8 | 345 | 0.0 | 4.8 | 0.00 | 0.00 | 0.00 | 90 | 1014.1 |
| 20260510034021 | 8 | 345 | 1.6 | 6.4 | 0.00 | 0.00 | 0.00 | 91 | 1014.1 |
| 20260510033519 | 8 | 345 | 1.6 | 4.8 | 0.00 | 0.00 | 0.00 | 90 | 1014.2 |
| 20260510033022 | 8 | 345 | 1.6 | 3.2 | 0.00 | 0.00 | 0.00 | 90 | 1014.2 |
| 20260510032517 | 8 | 345 | 0.0 | 3.2 | 0.00 | 0.00 | 0.00 | 90 | 1014.4 |
| 20260510032017 | 8 | 345 | 0.0 | 4.8 | 0.00 | 0.00 | 0.00 | 90 | 1014.4 |
| 20260510031515 | 8 | 345 | 1.6 | 4.8 | 0.00 | 0.00 | 0.00 | 90 | 1014.3 |
| 20260510031014 | 9 | 345 | 3.2 | 4.8 | 0.00 | 0.00 | 0.00 | 90 | 1014.3 |
| 20260510030513 | 9 | 345 | 1.6 | 4.8 | 0.00 | 0.00 | 0.00 | 90 | 1014.4 |
| 20260510030023 | 9 | 345 | 0.0 | 3.2 | 0.00 | 0.00 | 0.00 | 90 | 1014.4 |
| 20260510025513 | 9 | 345 | 1.6 | 4.8 | 0.00 | 0.00 | 0.00 | 90 | 1014.3 |
| 20260510025014 | 9 | 345 | 1.6 | 4.8 | 0.00 | 0.00 | 0.00 | 89 | 1014.4 |
| 20260510024514 | 9 | 345 | 1.6 | 4.8 | 0.00 | 0.00 | 0.00 | 89 | 1014.3 |
| 20260510024011 | 9 | 345 | 1.6 | 8.0 | 0.00 | 0.00 | 0.00 | 89 | 1014.3 |
| 20260510023517 | 9 | 345 | 3.2 | 8.0 | 0.00 | 0.00 | 0.00 | 89 | 1014.4 |
| 20260510023012 | 9 | 348 | 3.2 | 8.0 | 0.00 | 0.00 | 0.00 | 89 | 1014.4 |
| 20260510022515 | 9 | 348 | 3.2 | 8.0 | 0.00 | 0.00 | 0.00 | 90 | 1014.4 |
| 20260510022012 | 9 | 349 | 3.2 | 8.0 | 0.00 | 0.00 | 0.00 | 90 | 1014.4 |
| 20260510021519 | 9 | 350 | 1.6 | 6.4 | 0.00 | 0.00 | 0.00 | 90 | 1014.4 |
| 20260510021010 | 9 | 350 | 1.6 | 4.8 | 0.00 | 0.00 | 0.00 | 89 | 1014.5 |
| 20260510020512 | 9 | 350 | 1.6 | 4.8 | 0.00 | 0.00 | 0.00 | 89 | 1014.5 |
| 20260510020009 | 9 | 350 | 1.6 | 4.8 | 0.00 | 0.00 | 0.00 | 89 | 1014.5 |
| 20260510015510 | 9 | 350 | 0.0 | 4.8 | 0.00 | 0.00 | 0.00 | 90 | 1014.6 |
| 20260510015009 | 9 | 350 | 1.6 | 4.8 | 0.00 | 0.00 | 0.00 | 90 | 1014.5 |
| 20260510014508 | 9 | 350 | 1.6 | 4.8 | 0.00 | 0.00 | 0.00 | 90 | 1014.5 |
| 20260510014007 | 9 | 350 | 0.0 | 3.2 | 0.00 | 0.00 | 0.00 | 89 | 1014.5 |
| 20260510013507 | 9 | 350 | 0.0 | 3.2 | 0.00 | 0.00 | 0.00 | 89 | 1014.4 |
| 20260510013007 | 9 | 350 | 0.0 | 4.8 | 0.00 | 0.00 | 0.00 | 89 | 1014.4 |
| 20260510012506 | 10 | 350 | 1.6 | 4.8 | 0.00 | 0.00 | 0.00 | 89 | 1014.4 |
| 20260510012005 | 9 | 350 | 3.2 | 4.8 | 0.00 | 0.00 | 0.00 | 89 | 1014.6 |
| 20260510011509 | 9 | 350 | 0.0 | 3.2 | 0.00 | 0.00 | 0.00 | 89 | 1014.6 |
| 20260510011004 | 9 | 350 | 0.0 | 3.2 | 0.00 | 0.00 | 0.00 | 89 | 1014.6 |
| 20260510010504 | 9 | 350 | 0.0 | 3.2 | 0.00 | 0.00 | 0.00 | 89 | 1014.6 |
| 20260510010003 | 10 | 350 | 1.6 | 3.2 | 0.00 | 0.00 | 0.00 | 88 | 1014.7 |
| 20260510005503 | 10 | 350 | 1.6 | 3.2 | 0.00 | 0.00 | 0.00 | 88 | 1014.7 |
| 20260510005002 | 10 | 350 | 1.6 | 4.8 | 0.00 | 0.00 | 0.00 | 88 | 1014.7 |
| 20260510004501 | 10 | 350 | 1.6 | 4.8 | 0.00 | 0.00 | 0.00 | 88 | 1014.7 |
| 20260510004100 | 10 | 350 | 1.6 | 3.2 | 0.00 | 0.00 | 0.00 | 88 | 1014.8 |
| 20260510003600 | 10 | 350 | 1.6 | 3.2 | 0.00 | 0.00 | 0.00 | 87 | 1014.8 |
| 20260510003107 | 10 | 350 | 0.0 | 3.2 | 0.00 | 0.00 | 0.00 | 87 | 1014.9 |
| 20260510002558 | 10 | 350 | 0.0 | 3.2 | 0.00 | 0.00 | 0.00 | 87 | 1015.0 |
| 20260510002057 | 10 | 350 | 1.6 | 3.2 | 0.00 | 0.00 | 0.00 | 87 | 1015.1 |
| 20260510001556 | 10 | 350 | 0.0 | 3.2 | 0.00 | 0.00 | 0.00 | 87 | 1015.1 |
| 20260510001057 | 10 | 350 | 0.0 | 3.2 | 0.00 | 0.00 | 0.00 | 86 | 1015.2 |
| 20260510000558 | 10 | 350 | 0.0 | 3.2 | 0.00 | 0.00 | 0.00 | 86 | 1015.2 |
| 20260510000056 | 10 | 350 | 0.0 | 1.6 | 0.00 | 0.00 | 0.00 | 86 | 1015.3 |
| 20260509235553 | 10 | 350 | 0.0 | 3.2 | 0.00 | 0.00 | 0.00 | 85 | 1015.4 |
| 20260509235053 | 11 | 350 | 1.6 | 3.2 | 0.00 | 0.00 | 0.00 | 85 | 1015.5 |
| 20260509234604 | 11 | 350 | 1.6 | 3.2 | 0.00 | 0.00 | 0.00 | 86 | 1015.5 |
| 20260509234052 | 11 | 350 | 0.0 | 3.2 | 0.00 | 0.00 | 0.00 | 85 | 1015.6 |
| 20260509233553 | 11 | 350 | 0.0 | 3.2 | 0.00 | 0.00 | 0.00 | 85 | 1015.6 |
| 20260509233050 | 11 | 350 | 0.0 | 3.2 | 0.00 | 0.00 | 0.00 | 85 | 1015.6 |
| 20260509232552 | 11 | 350 | 0.0 | 1.6 | 0.00 | 0.00 | 0.00 | 85 | 1015.7 |
| 20260509232050 | 11 | 350 | 0.0 | 1.6 | 0.00 | 0.00 | 0.00 | 85 | 1015.8 |
| 20260509231556 | 11 | 350 | 0.0 | 1.6 | 0.00 | 0.00 | 0.00 | 85 | 1015.8 |
| 20260509231048 | 11 | 350 | 0.0 | 1.6 | 0.00 | 0.00 | 0.00 | 84 | 1015.8 |
| 20260509230548 | 11 | 350 | 0.0 | 3.2 | 0.00 | 0.00 | 0.00 | 84 | 1015.7 |
| 20260509230052 | 11 | 350 | 0.0 | 3.2 | 0.00 | 0.00 | 0.00 | 83 | 1015.8 |
| 20260509225549 | 11 | 350 | 0.0 | 3.2 | 0.00 | 0.00 | 0.00 | 84 | 1015.7 |
| 20260509225048 | 11 | 350 | 1.6 | 3.2 | 0.00 | 0.00 | 0.00 | 84 | 1015.8 |
| 20260509224555 | 11 | 350 | 0.0 | 1.6 | 0.00 | 0.00 | 0.00 | 84 | 1015.9 |
| 20260509224045 | 11 | 350 | 0.0 | 3.2 | 0.00 | 0.00 | 0.00 | 83 | 1015.9 |
| 20260509223544 | 11 | 350 | 0.0 | 3.2 | 0.00 | 0.00 | 0.00 | 83 | 1015.8 |
| 20260509223050 | 11 | 350 | 0.0 | 3.2 | 0.00 | 0.00 | 0.00 | 82 | 1015.8 |
| 20260509222541 | 12 | 350 | 0.0 | 3.2 | 0.00 | 0.00 | 0.00 | 81 | 1016.0 |
| 20260509222041 | 12 | 350 | 0.0 | 3.2 | 0.00 | 0.00 | 0.00 | 81 | 1016.0 |
| 20260509221540 | 12 | 350 | 0.0 | 0.0 | 0.00 | 0.00 | 0.00 | 80 | 1016.1 |
| 20260509221038 | 12 | 350 | 0.0 | 1.6 | 0.00 | 0.00 | 0.00 | 78 | 1016.1 |
| 20260509220536 | 13 | 350 | 0.0 | 1.6 | 0.00 | 0.00 | 0.00 | 77 | 1016.1 |
| 20260509220037 | 13 | 350 | 0.0 | 3.2 | 0.00 | 0.00 | 0.00 | 76 | 1016.2 |
| 20260509215536 | 13 | 350 | 0.0 | 4.8 | 0.00 | 0.00 | 0.00 | 76 | 1016.2 |
| 20260509215036 | 13 | 350 | 1.6 | 4.8 | 0.00 | 0.00 | 0.00 | 75 | 1016.2 |
| 20260509214539 | 13 | 350 | 1.6 | 4.8 | 0.00 | 0.00 | 0.00 | 75 | 1016.2 |
| 20260509214034 | 13 | 350 | 1.6 | 4.8 | 0.00 | 0.00 | 0.00 | 75 | 1016.1 |
| 20260509213534 | 13 | 350 | 1.6 | 3.2 | 0.00 | 0.00 | 0.00 | 75 | 1016.3 |
| 20260509213035 | 13 | 350 | 1.6 | 4.8 | 0.00 | 0.00 | 0.00 | 75 | 1016.2 |
| 20260509212534 | 13 | 350 | 3.2 | 4.8 | 0.00 | 0.00 | 0.00 | 75 | 1016.3 |
| 20260509212035 | 13 | 350 | 1.6 | 4.8 | 0.00 | 0.00 | 0.00 | 75 | 1016.4 |
| 20260509211535 | 13 | 350 | 0.0 | 6.4 | 0.00 | 0.00 | 0.00 | 75 | 1016.4 |
| 20260509211034 | 13 | 350 | 1.6 | 6.4 | 0.00 | 0.00 | 0.00 | 75 | 1016.4 |
| 20260509210534 | 13 | 350 | 1.6 | 6.4 | 0.00 | 0.00 | 0.00 | 75 | 1016.2 |
| 20260509210033 | 13 | 350 | 3.2 | 6.4 | 0.00 | 0.00 | 0.00 | 75 | 1016.3 |
| 20260509205533 | 13 | 350 | 1.6 | 4.8 | 0.00 | 0.00 | 0.00 | 75 | 1016.2 |
| 20260509205037 | 13 | 350 | 1.6 | 4.8 | 0.00 | 0.00 | 0.00 | 75 | 1016.1 |
| 20260509204534 | 13 | 350 | 0.0 | 3.2 | 0.00 | 0.00 | 0.00 | 75 | 1016.2 |
| 20260509204034 | 13 | 350 | 0.0 | 1.6 | 0.00 | 0.00 | 0.00 | 74 | 1016.1 |
| 20260509203533 | 13 | 350 | 0.0 | 3.2 | 0.00 | 0.00 | 0.00 | 73 | 1016.1 |
| 20260509203038 | 14 | 350 | 1.6 | 3.2 | 0.00 | 0.00 | 0.00 | 72 | 1016.1 |
| 20260509202533 | 14 | 350 | 0.0 | 3.2 | 0.00 | 0.00 | 0.00 | 72 | 1016.1 |
| 20260509202033 | 14 | 350 | 0.0 | 6.4 | 0.00 | 0.00 | 0.00 | 71 | 1016.0 |
| 20260509201533 | 14 | 350 | 1.6 | 6.4 | 0.00 | 0.00 | 0.00 | 71 | 1016.1 |
| 20260509201033 | 14 | 350 | 1.6 | 4.8 | 0.00 | 0.00 | 0.00 | 71 | 1016.1 |
| 20260509200532 | 14 | 350 | 1.6 | 4.8 | 0.00 | 0.00 | 0.00 | 70 | 1016.2 |
| 20260509200032 | 14 | 349 | 1.6 | 4.8 | 0.00 | 0.00 | 0.00 | 70 | 1016.2 |
| 20260509195534 | 15 | 349 | 1.6 | 4.8 | 0.00 | 0.00 | 0.00 | 70 | 1016.1 |
| 20260509195034 | 15 | 349 | 1.6 | 6.4 | 0.00 | 0.00 | 0.00 | 69 | 1016.0 |
| 20260509194533 | 15 | 349 | 3.2 | 6.4 | 0.00 | 0.00 | 0.00 | 69 | 1015.8 |
| 20260509194031 | 15 | 349 | 1.6 | 4.8 | 0.00 | 0.00 | 0.00 | 70 | 1015.8 |
| 20260509193532 | 15 | 349 | 1.6 | 3.2 | 0.00 | 0.00 | 0.00 | 70 | 1015.7 |
| 20260509193031 | 15 | 349 | 0.0 | 3.2 | 0.00 | 0.00 | 0.00 | 69 | 1015.7 |
| 20260509192532 | 15 | 349 | 0.0 | 3.2 | 0.00 | 0.00 | 0.00 | 68 | 1015.7 |
| 20260509192032 | 15 | 349 | 0.0 | 3.2 | 0.00 | 0.00 | 0.00 | 68 | 1015.6 |
| 20260509191531 | 16 | 349 | 0.0 | 3.2 | 0.00 | 0.00 | 0.00 | 67 | 1015.6 |
| 20260509191032 | 16 | 349 | 0.0 | 4.8 | 0.00 | 0.00 | 0.00 | 65 | 1015.6 |
| 20260509190531 | 16 | 349 | 1.6 | 4.8 | 0.00 | 0.00 | 0.00 | 63 | 1015.5 |
| 20260509190031 | 17 | 349 | 1.6 | 6.4 | 0.00 | 0.00 | 0.00 | 62 | 1015.4 |
| 20260509185530 | 17 | 349 | 1.6 | 4.8 | 0.00 | 0.00 | 0.00 | 60 | 1015.4 |
| 20260509185031 | 17 | 349 | 1.6 | 4.8 | 0.00 | 0.00 | 0.00 | 59 | 1015.4 |
| 20260509184542 | 17 | 349 | 1.6 | 4.8 | 0.00 | 0.00 | 0.00 | 57 | 1015.5 |
| 20260509184030 | 18 | 349 | 1.6 | 4.8 | 0.00 | 0.00 | 0.00 | 56 | 1015.3 |
| 20260509183530 | 18 | 349 | 1.6 | 4.8 | 0.00 | 0.00 | 0.00 | 55 | 1015.4 |
| 20260509183030 | 18 | 349 | 1.6 | 4.8 | 0.00 | 0.00 | 0.00 | 55 | 1015.3 |
| 20260509182529 | 18 | 349 | 1.6 | 6.4 | 0.00 | 0.00 | 0.00 | 54 | 1015.3 |
| 20260509182029 | 18 | 349 | 1.6 | 6.4 | 0.00 | 0.00 | 0.00 | 54 | 1015.4 |
| 20260509181529 | 18 | 350 | 1.6 | 4.8 | 0.00 | 0.00 | 0.00 | 54 | 1015.4 |
| 20260509181029 | 19 | 350 | 1.6 | 4.8 | 0.00 | 0.00 | 0.00 | 53 | 1015.4 |
| 20260509180529 | 19 | 350 | 1.6 | 6.4 | 0.00 | 0.00 | 0.00 | 53 | 1015.3 |
| 20260509180044 | 19 | 350 | 1.6 | 4.8 | 0.00 | 0.00 | 0.00 | 52 | 1015.4 |
| 20260509175529 | 19 | 350 | 1.6 | 6.4 | 0.00 | 0.00 | 0.00 | 52 | 1015.3 |
| 20260509175029 | 19 | 350 | 3.2 | 6.4 | 0.00 | 0.00 | 0.00 | 52 | 1015.3 |
| 20260509174530 | 19 | 355 | 1.6 | 6.4 | 0.00 | 0.00 | 0.00 | 51 | 1015.3 |
| 20260509174028 | 20 | 355 | 3.2 | 6.4 | 0.00 | 0.00 | 0.00 | 51 | 1015.3 |
| 20260509173528 | 20 | 360 | 3.2 | 6.4 | 0.00 | 0.00 | 0.00 | 49 | 1015.3 |
| 20260509173027 | 20 | 360 | 3.2 | 8.0 | 0.00 | 0.00 | 0.00 | 48 | 1015.3 |
| 20260509172529 | 20 | 348 | 1.6 | 8.0 | 0.00 | 0.00 | 0.00 | 49 | 1015.4 |
| 20260509172026 | 20 | 351 | 1.6 | 6.4 | 0.00 | 0.00 | 0.00 | 49 | 1015.4 |
| 20260509171527 | 20 | 348 | 0.0 | 8.0 | 0.00 | 0.00 | 0.00 | 49 | 1015.5 |
| 20260509171026 | 20 | 348 | 3.2 | 8.0 | 0.00 | 0.00 | 0.00 | 48 | 1015.6 |
| 20260509170526 | 20 | 348 | 1.6 | 4.8 | 0.00 | 0.00 | 0.00 | 50 | 1015.6 |
| 20260509170044 | 20 | 348 | 1.6 | 4.8 | 0.00 | 0.00 | 0.00 | 49 | 1015.7 |
| 20260509165525 | 20 | 348 | 0.0 | 4.8 | 0.00 | 0.00 | 0.00 | 51 | 1015.6 |
| 20260509165024 | 20 | 348 | 0.0 | 4.8 | 0.00 | 0.00 | 0.00 | 48 | 1015.7 |
| 20260509164524 | 20 | 348 | 0.0 | 4.8 | 0.00 | 0.00 | 0.00 | 47 | 1015.8 |
| 20260509164024 | 20 | 346 | 0.0 | 8.0 | 0.00 | 0.00 | 0.00 | 50 | 1015.8 |
| 20260509163525 | 20 | 346 | 3.2 | 8.0 | 0.00 | 0.00 | 0.00 | 49 | 1015.8 |
| 20260509163026 | 20 | 348 | 1.6 | 6.4 | 0.00 | 0.00 | 0.00 | 49 | 1015.8 |
| 20260509162522 | 20 | 348 | 3.2 | 8.0 | 0.00 | 0.00 | 0.00 | 48 | 1015.9 |
| 20260509162022 | 20 | 348 | 3.2 | 8.0 | 0.00 | 0.00 | 0.00 | 46 | 1015.9 |
| 20260509161522 | 20 | 25 | 3.2 | 8.0 | 0.00 | 0.00 | 0.00 | 48 | 1016.0 |
| 20260509161020 | 20 | 34 | 3.2 | 8.0 | 0.00 | 0.00 | 0.00 | 47 | 1016.1 |
| 20260509160520 | 21 | 338 | 1.6 | 8.0 | 0.00 | 0.00 | 0.00 | 49 | 1016.1 |
| 20260509160020 | 21 | 338 | 0.0 | 8.0 | 0.00 | 0.00 | 0.00 | 49 | 1016.2 |
| 20260509155520 | 21 | 337 | 0.0 | 6.4 | 0.00 | 0.00 | 0.00 | 48 | 1016.3 |
| 20260509155020 | 21 | 337 | 3.2 | 6.4 | 0.00 | 0.00 | 0.00 | 47 | 1016.2 |
| 20260509154519 | 20 | 336 | 0.0 | 4.8 | 0.00 | 0.00 | 0.00 | 47 | 1016.3 |
| 20260509154022 | 21 | 335 | 1.6 | 6.4 | 0.00 | 0.00 | 0.00 | 47 | 1016.3 |
| 20260509153518 | 21 | 335 | 0.0 | 6.4 | 0.00 | 0.00 | 0.00 | 49 | 1016.3 |
| 20260509153020 | 21 | 334 | 3.2 | 12.9 | 0.00 | 0.00 | 0.00 | 47 | 1016.4 |
| 20260509152517 | 21 | 337 | 3.2 | 12.9 | 0.00 | 0.00 | 0.00 | 45 | 1016.5 |
| 20260509152019 | 21 | 264 | 0.0 | 4.8 | 0.00 | 0.00 | 0.00 | 45 | 1016.5 |
| 20260509151516 | 21 | 263 | 1.6 | 4.8 | 0.00 | 0.00 | 0.00 | 49 | 1016.5 |
| 20260509151015 | 21 | 261 | 1.6 | 4.8 | 0.00 | 0.00 | 0.00 | 47 | 1016.7 |
| 20260509150519 | 21 | 261 | 1.6 | 4.8 | 0.00 | 0.00 | 0.00 | 46 | 1016.6 |
| 20260509150015 | 21 | 329 | 0.0 | 6.4 | 0.00 | 0.00 | 0.00 | 48 | 1016.6 |
| 20260509145515 | 20 | 329 | 1.6 | 6.4 | 0.00 | 0.00 | 0.00 | 48 | 1016.7 |
| 20260509145016 | 21 | 26 | 3.2 | 6.4 | 0.00 | 0.00 | 0.00 | 46 | 1016.7 |
| 20260509144518 | 21 | 340 | 1.6 | 6.4 | 0.00 | 0.00 | 0.00 | 50 | 1016.6 |
| 20260509144013 | 21 | 340 | 1.6 | 4.8 | 0.00 | 0.00 | 0.00 | 46 | 1016.7 |
| 20260509143513 | 21 | 340 | 0.0 | 3.2 | 0.00 | 0.00 | 0.00 | 49 | 1016.8 |
| 20260509143017 | 21 | 340 | 0.0 | 4.8 | 0.00 | 0.00 | 0.00 | 47 | 1016.9 |
| 20260509142512 | 21 | 340 | 0.0 | 8.0 | 0.00 | 0.00 | 0.00 | 48 | 1016.9 |
| 20260509142015 | 21 | 340 | 1.6 | 8.0 | 0.00 | 0.00 | 0.00 | 51 | 1017.0 |
| 20260509141521 | 21 | 85 | 3.2 | 9.7 | 0.00 | 0.00 | 0.00 | 49 | 1017.0 |
| 20260509141009 | 21 | 92 | 4.8 | 9.7 | 0.00 | 0.00 | 0.00 | 48 | 1017.1 |
| 20260509140509 | 21 | 78 | 1.6 | 4.8 | 0.00 | 0.00 | 0.00 | 47 | 1017.2 |
| 20260509140008 | 22 | 16 | 1.6 | 6.4 | 0.00 | 0.00 | 0.00 | 47 | 1017.2 |
| 20260509135510 | 20 | 17 | 1.6 | 6.4 | 0.00 | 0.00 | 0.00 | 50 | 1017.3 |
| 20260509135009 | 20 | 340 | 3.2 | 8.0 | 0.00 | 0.00 | 0.00 | 48 | 1017.3 |
| 20260509134522 | 20 | 340 | 3.2 | 8.0 | 0.00 | 0.00 | 0.00 | 48 | 1017.5 |
| 20260509134006 | 21 | 334 | 1.6 | 12.9 | 0.00 | 0.00 | 0.00 | 48 | 1017.5 |
| 20260509133506 | 20 | 335 | 4.8 | 12.9 | 0.00 | 0.00 | 0.00 | 50 | 1017.5 |
| 20260509133005 | 21 | 349 | 4.8 | 12.9 | 0.00 | 0.00 | 0.00 | 48 | 1017.5 |
| 20260509132510 | 21 | 355 | 4.8 | 9.7 | 0.00 | 0.00 | 0.00 | 48 | 1017.8 |
| 20260509132003 | 21 | 259 | 0.0 | 6.4 | 0.00 | 0.00 | 0.00 | 47 | 1017.8 |
| 20260509131506 | 21 | 259 | 1.6 | 11.3 | 0.00 | 0.00 | 0.00 | 50 | 1017.9 |
| 20260509131003 | 21 | 259 | 3.2 | 11.3 | 0.00 | 0.00 | 0.00 | 47 | 1018.0 |
| 20260509130502 | 21 | 338 | 0.0 | 9.7 | 0.00 | 0.00 | 0.00 | 48 | 1018.1 |
| 20260509130002 | 20 | 67 | 0.0 | 9.7 | 0.00 | 0.00 | 0.00 | 49 | 1018.2 |
| 20260509125501 | 20 | 148 | 4.8 | 9.7 | 0.00 | 0.00 | 0.00 | 51 | 1018.3 |
| 20260509125101 | 20 | 355 | 3.2 | 8.0 | 0.00 | 0.00 | 0.00 | 48 | 1018.4 |
| 20260509124600 | 20 | 74 | 3.2 | 8.0 | 0.00 | 0.00 | 0.00 | 50 | 1018.3 |
| 20260509124100 | 21 | 90 | 3.2 | 9.7 | 0.00 | 0.00 | 0.00 | 48 | 1018.4 |
| 20260509123601 | 20 | 174 | 3.2 | 6.4 | 0.00 | 0.00 | 0.00 | 47 | 1018.5 |
| 20260509123057 | 21 | 167 | 0.0 | 9.7 | 0.00 | 0.00 | 0.00 | 52 | 1018.5 |
| 20260509122558 | 20 | 165 | 3.2 | 9.7 | 0.00 | 0.00 | 0.00 | 55 | 1018.5 |
| 20260509122056 | 20 | 166 | 3.2 | 8.0 | 0.00 | 0.00 | 0.00 | 51 | 1018.6 |
| 20260509121556 | 20 | 166 | 4.8 | 8.0 | 0.00 | 0.00 | 0.00 | 52 | 1018.6 |
| 20260509121059 | 20 | 174 | 3.2 | 8.0 | 0.00 | 0.00 | 0.00 | 54 | 1018.7 |
| 20260509120555 | 20 | 42 | 1.6 | 12.9 | 0.00 | 0.00 | 0.00 | 53 | 1018.8 |
| 20260509120059 | 19 | 46 | 4.8 | 12.9 | 0.00 | 0.00 | 0.00 | 51 | 1019.0 |
| 20260509115554 | 20 | 30 | 1.6 | 8.0 | 0.00 | 0.00 | 0.00 | 53 | 1018.9 |
| 20260509115053 | 19 | 55 | 3.2 | 8.0 | 0.00 | 0.00 | 0.00 | 52 | 1019.0 |
| 20260509114553 | 20 | 138 | 1.6 | 6.4 | 0.00 | 0.00 | 0.00 | 54 | 1019.0 |
| 20260509114052 | 19 | 132 | 3.2 | 6.4 | 0.00 | 0.00 | 0.00 | 53 | 1019.0 |
| 20260509113555 | 18 | 28 | 1.6 | 8.0 | 0.00 | 0.00 | 0.00 | 54 | 1019.0 |
| 20260509113051 | 19 | 9 | 1.6 | 8.0 | 0.00 | 0.00 | 0.00 | 55 | 1019.1 |
| 20260509112550 | 18 | 41 | 3.2 | 8.0 | 0.00 | 0.00 | 0.00 | 54 | 1019.2 |
| 20260509112049 | 20 | 105 | 0.0 | 6.4 | 0.00 | 0.00 | 0.00 | 54 | 1019.3 |
| 20260509111549 | 20 | 105 | 0.0 | 6.4 | 0.00 | 0.00 | 0.00 | 55 | 1019.4 |
| 20260509111048 | 19 | 96 | 1.6 | 6.4 | 0.00 | 0.00 | 0.00 | 56 | 1019.4 |
| 20260509110547 | 19 | 9 | 1.6 | 8.0 | 0.00 | 0.00 | 0.00 | 55 | 1019.5 |
| 20260509110048 | 18 | 68 | 3.2 | 6.4 | 0.00 | 0.00 | 0.00 | 55 | 1019.5 |
| 20260509105546 | 18 | 360 | 3.2 | 12.9 | 0.00 | 0.00 | 0.00 | 55 | 1019.6 |
| 20260509105045 | 18 | 9 | 1.6 | 12.9 | 0.00 | 0.00 | 0.00 | 56 | 1019.6 |
| 20260509104601 | 18 | 30 | 1.6 | 6.4 | 0.00 | 0.00 | 0.00 | 57 | 1019.6 |
| 20260509104044 | 18 | 91 | 3.2 | 6.4 | 0.00 | 0.00 | 0.00 | 57 | 1019.8 |
| 20260509103543 | 18 | 99 | 1.6 | 11.3 | 0.00 | 0.00 | 0.00 | 58 | 1019.8 |
| 20260509103045 | 18 | 99 | 3.2 | 11.3 | 0.00 | 0.00 | 0.00 | 57 | 1019.8 |
| 20260509102543 | 18 | 64 | 3.2 | 8.0 | 0.00 | 0.00 | 0.00 | 57 | 1019.8 |
| 20260509102042 | 18 | 347 | 1.6 | 8.0 | 0.00 | 0.00 | 0.00 | 59 | 1019.9 |
| 20260509101543 | 17 | 350 | 3.2 | 8.0 | 0.00 | 0.00 | 0.00 | 59 | 1019.9 |
| 20260509101042 | 17 | 42 | 3.2 | 8.0 | 0.00 | 0.00 | 0.00 | 61 | 1020.0 |
| 20260509100543 | 17 | 122 | 1.6 | 12.9 | 0.00 | 0.00 | 0.00 | 63 | 1020.1 |
| 20260509100042 | 17 | 132 | 6.4 | 12.9 | 0.00 | 0.00 | 0.00 | 61 | 1020.2 |
| 20260509095543 | 17 | 338 | 1.6 | 12.9 | 0.00 | 0.00 | 0.00 | 61 | 1020.2 |
| 20260509095042 | 18 | 336 | 1.6 | 8.0 | 0.00 | 0.00 | 0.00 | 61 | 1020.2 |
| 20260509094542 | 17 | 347 | 1.6 | 8.0 | 0.00 | 0.00 | 0.00 | 63 | 1020.3 |
| 20260509094039 | 17 | 355 | 1.6 | 8.0 | 0.00 | 0.00 | 0.00 | 67 | 1020.3 |
| 20260509093539 | 17 | 360 | 3.2 | 9.7 | 0.00 | 0.00 | 0.00 | 64 | 1020.4 |
| 20260509093038 | 17 | 13 | 1.6 | 9.7 | 0.00 | 0.00 | 0.00 | 67 | 1020.3 |
| 20260509092541 | 16 | 355 | 1.6 | 6.4 | 0.00 | 0.00 | 0.00 | 65 | 1020.3 |
| 20260509092036 | 16 | 342 | 1.6 | 8.0 | 0.00 | 0.00 | 0.00 | 67 | 1020.3 |
| 20260509091540 | 16 | 338 | 3.2 | 8.0 | 0.00 | 0.00 | 0.00 | 66 | 1020.4 |
| 20260509091036 | 16 | 73 | 1.6 | 8.0 | 0.00 | 0.00 | 0.00 | 66 | 1020.4 |
| 20260509090535 | 16 | 11 | 0.0 | 6.4 | 0.00 | 0.00 | 0.00 | 70 | 1020.4 |
| 20260509090048 | 15 | 5 | 3.2 | 6.4 | 0.00 | 0.00 | 0.00 | 69 | 1020.4 |
| 20260509085533 | 16 | 360 | 3.2 | 6.4 | 0.00 | 0.00 | 0.00 | 72 | 1020.4 |
| 20260509085033 | 15 | 360 | 3.2 | 6.4 | 0.00 | 0.00 | 0.00 | 70 | 1020.4 |
| 20260509084533 | 15 | 38 | 1.6 | 8.0 | 0.00 | 0.00 | 0.00 | 72 | 1020.4 |
| 20260509084033 | 14 | 5 | 3.2 | 8.0 | 0.00 | 0.00 | 0.00 | 73 | 1020.4 |
| 20260509083531 | 15 | 360 | 3.2 | 8.0 | 0.00 | 0.00 | 0.00 | 70 | 1020.5 |
| 20260509083031 | 14 | 67 | 1.6 | 12.9 | 0.00 | 0.00 | 0.00 | 72 | 1020.4 |
| 20260509082530 | 14 | 52 | 0.0 | 12.9 | 0.00 | 0.00 | 0.00 | 74 | 1020.5 |
| 20260509082028 | 14 | 345 | 0.0 | 6.4 | 0.00 | 0.00 | 0.00 | 77 | 1020.5 |
| 20260509081540 | 13 | 5 | 3.2 | 8.0 | 0.00 | 0.00 | 0.00 | 75 | 1020.5 |
| 20260509081026 | 13 | 55 | 0.0 | 8.0 | 0.00 | 0.00 | 0.00 | 78 | 1020.5 |
| 20260509080525 | 13 | 347 | 1.6 | 8.0 | 0.00 | 0.00 | 0.00 | 78 | 1020.5 |
| 20260509080025 | 12 | 347 | 3.2 | 8.0 | 0.00 | 0.00 | 0.00 | 79 | 1020.5 |
| 20260509075524 | 12 | 336 | 3.2 | 8.0 | 0.00 | 0.00 | 0.00 | 80 | 1020.5 |
| 20260509075023 | 12 | 349 | 3.2 | 9.7 | 0.00 | 0.00 | 0.00 | 81 | 1020.5 |
| 20260509074524 | 12 | 5 | 3.2 | 9.7 | 0.00 | 0.00 | 0.00 | 81 | 1020.6 |
| 20260509074022 | 12 | 37 | 1.6 | 8.0 | 0.00 | 0.00 | 0.00 | 83 | 1020.6 |
| 20260509073521 | 11 | 340 | 3.2 | 9.7 | 0.00 | 0.00 | 0.00 | 83 | 1020.6 |
| 20260509073035 | 11 | 339 | 3.2 | 9.7 | 0.00 | 0.00 | 0.00 | 84 | 1020.7 |
| 20260509072521 | 11 | 342 | 4.8 | 9.7 | 0.00 | 0.00 | 0.00 | 84 | 1020.6 |
| 20260509072018 | 11 | 336 | 4.8 | 9.7 | 0.00 | 0.00 | 0.00 | 85 | 1020.6 |
| 20260509071519 | 11 | 15 | 3.2 | 9.7 | 0.00 | 0.00 | 0.00 | 85 | 1020.7 |
| 20260509071016 | 10 | 341 | 3.2 | 8.0 | 0.00 | 0.00 | 0.00 | 85 | 1020.7 |
| 20260509070517 | 10 | 355 | 3.2 | 8.0 | 0.00 | 0.00 | 0.00 | 87 | 1020.7 |
| 20260509070030 | 10 | 355 | 3.2 | 8.0 | 0.00 | 0.00 | 0.00 | 88 | 1020.7 |
| 20260509065517 | 10 | 14 | 4.8 | 8.0 | 0.00 | 0.00 | 0.00 | 88 | 1020.8 |
| 20260509065010 | 9 | 355 | 3.2 | 8.0 | 0.00 | 0.00 | 0.00 | 89 | 1020.8 |
| 20260509064510 | 9 | 13 | 4.8 | 8.0 | 0.00 | 0.00 | 0.00 | 89 | 1020.9 |
| 20260509064008 | 8 | 5 | 3.2 | 8.0 | 0.00 | 0.00 | 0.00 | 90 | 1020.8 |
| 20260509063508 | 8 | 343 | 4.8 | 8.0 | 0.00 | 0.00 | 0.00 | 90 | 1020.6 |
| 20260509063012 | 8 | 346 | 3.2 | 8.0 | 0.00 | 0.00 | 0.00 | 90 | 1020.6 |